TimeEDT,TemperatureF,Dew PointF,Humidity,Sea Level PressureIn,VisibilityMPH,Wind Direction,Wind SpeedMPH,Gust SpeedMPH,PrecipitationIn,Events,Conditions,WindDirDegrees,DateUTC
12:53 AM,64.9,64.0,97,30.04,5.0,Calm,Calm,-,N/A,,Overcast,0,2013-08-09 04:53:00
1:18 AM,64.4,62.6,94,30.03,2.5,Calm,Calm,-,N/A,,Overcast,0,2013-08-09 05:18:00
1:53 AM,64.9,64.0,97,30.02,2.0,Calm,Calm,-,N/A,,Overcast,0,2013-08-09 05:53:00
2:53 AM,66.0,64.0,93,30.01,2.0,South,5.8,-,N/A,,Overcast,170,2013-08-09 06:53:00
3:53 AM,64.9,64.0,97,29.99,1.8,SE,4.6,-,N/A,,Overcast,140,2013-08-09 07:53:00
4:53 AM,64.9,64.0,97,29.99,1.0,SSE,5.8,-,N/A,,Overcast,150,2013-08-09 08:53:00
5:40 AM,64.4,64.4,100,29.99,0.5,SSE,6.9,-,N/A,Fog,Fog,160,2013-08-09 09:40:00
5:53 AM,64.9,64.0,97,29.99,0.5,SSE,6.9,-,N/A,Fog,Fog,160,2013-08-09 09:53:00
6:46 AM,66.2,64.4,94,29.97,0.5,SSE,5.8,-,0.00,Fog-Thunderstorm,Unknown,150,2013-08-09 10:46:00
6:53 AM,66.0,64.9,96,29.96,0.5,SSE,6.9,-,0.00,Fog-Rain-Thunderstorm,Light Thunderstorms and Rain,150,2013-08-09 10:53:00
7:48 AM,66.2,66.2,100,29.96,1.5,South,8.1,-,0.06,Rain-Thunderstorm,Light Thunderstorms and Rain,170,2013-08-09 11:48:00
7:53 AM,66.9,66.0,97,29.96,1.5,South,8.1,-,0.10,Rain-Thunderstorm,Light Thunderstorms and Rain,170,2013-08-09 11:53:00
8:08 AM,66.2,66.2,100,29.95,0.8,SSE,9.2,-,0.15,Rain-Thunderstorm,Heavy Thunderstorms and Rain,160,2013-08-09 12:08:00
8:12 AM,66.2,66.2,100,29.96,2.0,South,9.2,-,0.15,Rain-Thunderstorm,Light Thunderstorms and Rain,180,2013-08-09 12:12:00
8:17 AM,66.2,66.2,100,29.96,1.0,SSW,8.1,-,0.16,Rain-Thunderstorm,Heavy Thunderstorms and Rain,200,2013-08-09 12:17:00
8:49 AM,66.2,64.4,94,29.97,3.0,South,10.4,-,0.24,Rain-Thunderstorm,Light Thunderstorms and Rain,180,2013-08-09 12:49:00
8:53 AM,66.9,64.9,93,29.96,3.0,SSW,8.1,-,0.26,Rain-Thunderstorm,Light Thunderstorms and Rain,210,2013-08-09 12:53:00
9:00 AM,66.2,64.4,94,29.96,2.0,South,5.8,-,N/A,Rain-Thunderstorm,Thunderstorms and Rain,180,2013-08-09 13:00:00
9:08 AM,66.2,64.4,94,29.96,1.0,South,5.8,-,N/A,Rain-Thunderstorm,Thunderstorms and Rain,180,2013-08-09 13:08:00
9:29 AM,66.2,66.2,100,29.95,3.0,South,4.6,-,N/A,Rain-Thunderstorm,Light Thunderstorms and Rain,170,2013-08-09 13:29:00
9:53 AM,68.0,66.9,96,29.95,5.0,South,4.6,-,N/A,Rain-Thunderstorm,Light Thunderstorms and Rain,180,2013-08-09 13:53:00
10:17 AM,69.8,66.2,88,29.96,3.0,South,9.2,-,0.03,Rain,Light Rain,170,2013-08-09 14:17:00
10:49 AM,69.8,66.2,88,29.96,4.0,South,8.1,-,0.10,Rain,Rain,170,2013-08-09 14:49:00
10:53 AM,69.1,66.9,93,29.95,3.0,South,6.9,-,0.12,Rain,Heavy Rain,170,2013-08-09 14:53:00
11:53 AM,70.0,68.0,93,29.93,7.0,South,11.5,-,0.11,Rain,Light Rain,180,2013-08-09 15:53:00
12:53 PM,70.0,68.0,93,29.93,4.0,South,15.0,-,0.06,Rain,Rain,180,2013-08-09 16:53:00
1:53 PM,71.1,69.1,93,29.91,5.0,South,13.8,-,0.01,Rain,Light Rain,190,2013-08-09 17:53:00
2:36 PM,71.6,69.8,94,29.91,7.0,South,10.4,-,0.01,Rain,Light Rain,180,2013-08-09 18:36:00
2:53 PM,70.0,68.0,93,29.90,7.0,South,9.2,-,0.02,Rain,Light Rain,170,2013-08-09 18:53:00
3:53 PM,69.1,66.9,93,29.90,4.0,South,11.5,-,0.04,Rain,Light Rain,170,2013-08-09 19:53:00
4:28 PM,66.2,64.4,94,29.89,5.0,South,13.8,-,0.05,Rain,Light Rain,190,2013-08-09 20:28:00
4:53 PM,66.9,64.9,93,29.88,2.5,South,8.1,-,0.14,Rain,Rain,180,2013-08-09 20:53:00
5:00 PM,66.2,64.4,94,29.88,1.5,South,8.1,-,0.05,Rain,Rain,180,2013-08-09 21:00:00
5:53 PM,66.9,64.9,93,29.85,1.8,SSE,5.8,-,0.29,Rain,Light Rain,160,2013-08-09 21:53:00
6:33 PM,66.2,64.4,94,29.82,3.0,SSE,10.4,18.4,0.09,Rain,Light Rain,150,2013-08-09 22:33:00
6:53 PM,66.9,64.9,93,29.80,3.0,SSE,15.0,25.3,0.10,Rain,Light Rain,160,2013-08-09 22:53:00
7:02 PM,66.2,64.4,94,29.80,1.8,SSE,15.0,21.9,0.05,Rain,Heavy Rain,160,2013-08-09 23:02:00
7:11 PM,66.2,64.4,94,29.79,2.5,SSE,13.8,21.9,0.07,Rain,Light Rain,160,2013-08-09 23:11:00
7:53 PM,66.0,64.0,93,29.77,3.0,South,8.1,-,0.12,Rain,Light Rain,170,2013-08-09 23:53:00
8:18 PM,66.2,64.4,94,29.77,6.0,South,8.1,-,0.01,,Overcast,170,2013-08-10 00:18:00
8:53 PM,66.0,64.0,93,29.76,4.0,SSW,5.8,-,0.02,Rain,Light Rain,210,2013-08-10 00:53:00
9:26 PM,64.4,64.4,100,29.76,2.5,Calm,Calm,-,0.03,Rain,Light Rain,0,2013-08-10 01:26:00
9:42 PM,64.4,64.4,100,29.75,2.5,Calm,Calm,-,0.05,Rain,Light Rain,0,2013-08-10 01:42:00
9:53 PM,64.9,64.0,97,29.74,3.0,Calm,Calm,-,0.05,,Overcast,0,2013-08-10 01:53:00
10:30 PM,66.2,64.4,94,29.73,4.0,NNE,3.5,-,0.01,,Overcast,20,2013-08-10 02:30:00
10:40 PM,66.2,64.4,94,29.72,2.5,Calm,Calm,-,0.01,Rain,Light Rain,0,2013-08-10 02:40:00
10:53 PM,66.0,64.0,93,29.71,2.5,Calm,Calm,-,0.02,Rain,Light Rain,0,2013-08-10 02:53:00
11:13 PM,66.2,64.4,94,29.71,2.5,Calm,Calm,-,0.00,Rain,Light Rain,0,2013-08-10 03:13:00
11:53 PM,66.0,64.0,93,29.70,2.0,Calm,Calm,-,0.00,,Overcast,0,2013-08-10 03:53:00